Regional Weather Roundup
Issued by NWS

Home | Current Version | Previous Version | Graphics & Text | Print | Product List | Glossary On
Versions: 1 2 3 4 5 6 7 8 9 10 11 12 13 14 15 16 17 18 19 20 21 22 23 24 25 26 27 28 29 30 31 32 33 34 35 36 37 38 39 40 41 42 43 44 45 46 47 48 49 50
018
ASUS43 KMKX 242221
RWRWI

WISCONSIN REGIONAL WEATHER ROUNDUP
NATIONAL WEATHER SERVICE MILWAUKEE/SULLIVAN WI
500 PM CDT FRI MAR 24 2017

NOTE: "FAIR" INDICATES FEW OR NO CLOUDS BELOW 12,000 FEET WITH NO
SIGNIFICANT WEATHER AND/OR OBSTRUCTIONS TO VISIBILITY.

WIZ001-002-006>008-014>016-023>028-242300-
NORTHWEST WISCONSIN

CITY           SKY/WX    TMP DP  RH WIND       PRES   REMARKS
SUPERIOR ARPT  CLOUDY    37  32  82 E6        30.16R WCI  33
ASHLAND        CLOUDY    39  32  76 NE10      30.16R WCI  32
HAYWARD        CLOUDY    39  32  76 NE15      30.11R WCI  31
SIREN          CLOUDY    39  33  76 NE10      30.13R WCI  33
CUMBERLAND     CLOUDY    37  34  87 N8        30.11R WCI  31
RICE LAKE      CLOUDY    40  35  83 CALM      30.13R
CHETEK         CLOUDY    40  35  83 N5        30.11R
LADYSMITH      CLOUDY    39  35  87 N13       30.12R WCI  31
EAU CLAIRE     CLOUDY    42  37  82 N12       30.07R
MENOMONIE      CLOUDY    44  37  77 N13       30.08R
NEW RICHMOND   CLOUDY    42  35  75 N10       30.11R
OSCEOLA        CLOUDY    42  35  76 N8        30.15R
$$

WIZ003>005-009-010-017-018-242300-
NORTH CENTRAL WISCONSIN

CITY           SKY/WX    TMP DP  RH WIND       PRES   REMARKS
MANITOWISH WTR CLOUDY    35  35 100 N3        30.08R
ARBOR VITAE    CLOUDY    37  35  94 N6        30.07R FOG     WCI  32
WOODRUFF       CLOUDY    37  35  94 N6        30.07R FOG     WCI  32
RHINELANDER    CLOUDY    36  35  96 N5        30.08R FOG     WCI  32
EAGLE RIVER    CLOUDY    34  34  99 N8        30.07S FOG     WCI  28
LAND O LAKES   FOG       34  34 100 N3        30.09S VSB 1/4
PHILLIPS       CLOUDY    35  35  98 NE8       30.08R WCI  29
TOMAHAWK       CLOUDY    36  33  90 N3        30.08R FOG
MEDFORD        CLOUDY    37  34  92 N12       30.07R FOG     WCI  29
MERRILL        CLOUDY    37  36  97 N8        30.08R WCI  31
$$

WIZ029-030-035-036-043>047-242300-
CENTRAL WISCONSIN

CITY           SKY/WX    TMP DP  RH WIND       PRES   REMARKS
WAUSAU         CLOUDY    38  36  92 N7        30.07R WCI  33
MOSINEE        CLOUDY    37  37 100 NE8       30.06R WCI  31
MARSHFIELD     LGT RAIN  38  37  97 NE8       30.05R WCI  32
STEVENS POINT  DRIZZLE   36  36 100 NE7       30.07R WCI  30
WAUPACA        DRIZZLE   39  37  93 N6        30.07R
WAUTOMA        LGT RAIN  37  36  96 N12       30.05R WCI  29
WISC RAPIDS    LGT RAIN  38  38 100 E9        30.07R WCI  31
CAMP DOUGLAS   LGT RAIN  39  37  93 N8        30.03S WCI  34
$$

WIZ011>013-019>022-031-037>040-048>050-242300-
NORTHEAST WISCONSIN

CITY           SKY/WX    TMP DP  RH WIND       PRES   REMARKS
ANTIGO         CLOUDY    36  35  96 NE6       30.06R WCI  31
SHAWANO        RAIN      38  36  92 NE3       30.08R
OCONTO         CLOUDY    37  35  94 N5        30.09R WCI  33
STURGEON BAY   LGT RAIN  35  34  96 N5        30.09R WCI  31
GREEN BAY      LGT RAIN  37  37 100 NE10      30.09R FOG     WCI  30
MANITOWOC      CLOUDY    37  34  89 N12G17    30.08R WCI  29
APPLETON       DRIZZLE   36  36 100 NE8       30.04R WCI  29
CLINTONVILLE   RAIN      36  36 100 NE6       30.08R WCI  31
OSHKOSH        LGT RAIN  37  34  89 NE18G24   30.03S FOG     WCI  27
$$

WIZ032>034-041-042-053>061-242300-
SOUTHWEST WISCONSIN

CITY           SKY/WX    TMP DP  RH WIND       PRES   REMARKS
LA CROSSE      CLOUDY    43  39  86 N9G17     30.03S FOG
SPARTA         CLOUDY    40  38  94 NE7       30.04F WCI  35
VIROQUA        CLOUDY    40  40  98 NE12      29.99R WCI  33
BOSCOBEL       CLOUDY    49  41  74 VRB7      29.98R
PRAIRIE DU CHI CLOUDY    47  40  75 N3        29.99R
PLATTEVILLE    CLOUDY    55  51  86 N9        29.93F
$$

WIZ056-057-062-063-064-067-068-242300-
SOUTH CENTRAL WISCONSIN

CITY           SKY/WX    TMP DP  RH WIND       PRES   REMARKS
REEDSBURG      CLOUDY    41  40  95 NE9       30.01R
BARABOO/DELLS  CLOUDY    40  38  93 NE9       30.02R FOG     WCI  34
LONE ROCK      CLOUDY    47  39  74 NE7G18    30.00R HAZE
MINERAL POINT  CLOUDY    54  46  76 NE9       29.96R
MADISON        CLOUDY    44  39  82 N14       29.99R
MIDDLETON      CLOUDY    46  41  82 N13       30.00R
WATERTOWN      CLOUDY    44  40  87 N12       29.98R
MONROE         LGT RAIN  59  50  72 N12       29.95R
JANESVILLE     MOSUNNY   64  48  55 N8        29.92R
$$

WIZ051-052-058>065-066-070>072-242300-
SOUTHEAST WISCONSIN

CITY           SKY/WX    TMP DP  RH WIND       PRES   REMARKS
MILWAUKEE      CLOUDY    40  35  83 N16G28    30.00R HAZE    WCI  31
WAUKESHA       MOSUNNY   43  36  75 E12G18    29.97R
MILWAUKEE/TIMM SUNNY     43  34  70 NE13G20   30.00R
RACINE         CLOUDY    40  35  83 N17G28    30.01R HAZE    WCI  31
KENOSHA        CLOUDY    44  37  76 NE18      29.96R
FOND DU LAC    LGT RAIN  38  34  85 N18       30.03R WCI  28
SHEBOYGAN      LGT RAIN  37  35  92 N16G24    30.01S FOG     WCI  28
WEST BEND      CLOUDY    41  36  81 NE12      30.00R
JUNEAU         LGT RAIN  39  36  89 N15G23    30.00R WCI  30
$$

LSZ147-162-242300-
LAKE SUPERIOR

STATION/POSITION TIME  TEMP    WIND        PRES    WAVE
                       AIR SEA DIR/SP/G            HT/PER
                 (UTC) (F)     (DEG/KT/KT) (MB)    (FT/S)
DEVILS ISLAND    2200   37      60/ 10/ 12 1022.3R
PORT WING        2140   36      30/  8/ 10 1021.3R
SAXON HARBOR     2130   35      40/  4/  5 1020.7R
$$

LMZ867-665-643>646-242300-
LAKE MICHIGAN

STATION/POSITION TIME  TEMP    WIND        PRES    WAVE
                       AIR SEA DIR/SP/G            HT/PER
                 (UTC) (F)     (DEG/KT/KT) (MB)    (FT/S)
CHAMBERS ISLAND  2140   33     360/  8/  9 1018.3R
NORTHPORT PIER   2140   33     330/  3/  6 1018.6R
SISTER BAY       2136   34      40/  7/  9   N/A
KEWAUNEE LAKESHO 2154   35      10/  6/ 10 1018.2R
SHEBOYGAN LAKESH 2200   36     360/ 28/ 32 1016.7S
PORT WASHINGTON  2130   41      10/ 12/ 19 1016.9R
MILWAUKEE LAKESH 2200   38      20/ 19/ 24   N/A
KENOSHA   LAKESH 2200   39      10/ 25/ 30 1014.6
$$

TC  - TEMPERATURE IN CELSIUS
VSB - VISIBILITY IN STATUTE MILES
WCI - WIND CHILL INDEX
HX  - HEAT INDEX





USA.gov is the U.S. government's official web portal to all federal, state and local government web resources and services.